KE7JVX-3 Weather Reports


Display with metric or nautical units.
time (UTC)temp
F
wind
direction
speed
MPH
gust
MPH
rain 1hr
in
rain 24hr
in
rain mn
in
humidity
%
barometer
mb
20260505214927 37 258 20.0 43.0 0.00 0.48 0.46 79 1006.5
20260505213927 36 260 20.0 35.0 0.00 0.48 0.46 79 1006.6
20260505212928 36 257 22.0 39.0 0.00 0.48 0.46 79 1006.6
20260505211927 36 247 21.0 36.0 0.00 0.48 0.46 79 1006.8
20260505210926 36 271 21.0 33.0 0.00 0.48 0.46 79 1006.8
20260505205928 36 256 20.0 31.0 0.00 0.48 0.46 79 1007.0
20260505204927 36 248 21.0 33.0 0.00 0.48 0.46 79 1006.8
20260505203927 36 251 19.0 33.0 0.00 0.48 0.46 79 1007.0
20260505202928 37 256 23.0 37.0 0.00 0.48 0.46 79 1006.9
20260505201926 37 248 24.0 33.0 0.00 0.48 0.46 79 1006.9
20260505200926 37 252 19.0 35.0 0.00 0.48 0.46 79 1007.0
20260505195926 37 258 22.0 34.0 0.00 0.48 0.46 79 1007.0
20260505194926 37 254 23.0 37.0 0.00 0.48 0.46 79 1007.1
20260505193927 37 257 22.0 36.0 0.00 0.48 0.46 79 1007.1
20260505192927 36 249 20.0 36.0 0.00 0.48 0.46 79 1006.9
20260505191927 36 262 23.0 34.0 0.00 0.48 0.46 79 1007.2
20260505190926 37 255 22.0 40.0 0.00 0.48 0.46 79 1007.2
20260505185926 36 251 14.0 39.0 0.00 0.48 0.46 79 1007.3
20260505184926 37 254 20.0 37.0 0.00 0.48 0.46 79 1007.3
20260505183926 36 259 18.0 30.0 0.00 0.48 0.46 79 1007.3
20260505182926 36 261 19.0 32.0 0.00 0.48 0.46 79 1007.3
20260505181927 37 250 19.0 33.0 0.00 0.48 0.46 79 1007.4
20260505180927 37 254 20.0 30.0 0.00 0.48 0.46 79 1007.5
20260505175927 36 251 20.0 30.0 0.00 0.48 0.46 79 1007.4
20260505174926 37 259 18.0 30.0 0.00 0.48 0.46 79 1007.5
20260505173927 36 248 15.0 27.0 0.00 0.48 0.46 79 1007.4
20260505172928 37 260 18.0 27.0 0.00 0.48 0.46 79 1007.6
20260505171929 36 249 16.0 29.0 0.00 0.48 0.46 79 1007.5
20260505170927 36 238 17.0 32.0 0.00 0.48 0.46 79 1007.4
20260505165926 36 255 20.0 35.0 0.00 0.48 0.46 79 1007.5
20260505164926 36 259 12.0 29.0 0.00 0.48 0.46 79 1007.7
20260505163926 36 263 21.0 33.0 0.00 0.48 0.46 79 1007.4
20260505162926 36 251 18.0 30.0 0.00 0.48 0.46 79 1007.3
20260505161926 36 250 20.0 33.0 0.00 0.48 0.46 79 1007.1
20260505160926 36 262 20.0 33.0 0.02 0.48 0.46 79 1007.0
20260505152927 37 249 18.0 29.0 0.19 0.48 0.46 79 1006.9
20260505152256 37 245 22.0 30.0 0.24 0.48 0.46 79 1007.1
20260505151926 37 245 22.0 30.0 0.24 0.48 0.46 79 1007.1
20260505150927 37 243 17.0 27.0 0.23 0.46 0.44 79 1007.0
20260505123925 37 250 8.0 13.0 0.02 0.09 0.07 78 1006.7
20260505122925 37 250 9.0 14.0 0.02 0.09 0.07 78 1006.6
20260505121927 36 257 10.0 15.0 0.01 0.08 0.06 78 1006.6
20260505120926 36 256 9.0 18.0 0.01 0.08 0.06 78 1006.7
20260505115928 36 254 11.0 18.0 0.00 0.07 0.05 78 1006.6
20260505114925 36 243 11.0 17.0 0.00 0.07 0.05 78 1006.7
20260505113926 36 258 11.0 18.0 0.01 0.07 0.05 78 1006.7
20260505112925 36 260 11.0 16.0 0.01 0.07 0.05 78 1006.9
20260505111926 37 250 10.0 19.0 0.01 0.07 0.05 78 1006.8
20260505110929 36 253 12.0 20.0 0.02 0.07 0.05 78 1006.9
20260505101817 37 256 15.0 25.0 0.02 0.05 0.03 78 1007.3
20260505100925 37 256 15.0 25.0 0.02 0.05 0.03 78 1007.3
20260505095926 36 252 17.0 28.0 0.02 0.05 0.03 78 1007.3
20260505094925 37 247 16.0 27.0 0.02 0.05 0.03 78 1007.4
20260505093925 37 252 18.0 28.0 0.02 0.05 0.03 78 1007.5
20260505092925 37 255 17.0 26.0 0.01 0.04 0.02 78 1007.6
20260505091925 37 258 14.0 24.0 0.02 0.04 0.02 78 1007.8
20260505090927 37 254 14.0 25.0 0.01 0.03 0.01 78 1007.8
20260505085928 37 250 14.0 28.0 0.01 0.03 0.01 78 1008.0
20260505084925 37 252 19.0 29.0 0.02 0.03 0.01 78 1008.2
20260505083522 37 247 20.0 31.0 0.02 0.03 0.01 78 1008.2
20260505082522 38 245 19.0 27.0 0.03 0.03 0.01 78 1008.3
20260505081522 38 245 19.0 28.0 0.02 0.02 0.00 78 1008.5
20260505080523 38 247 19.0 30.0 0.02 0.02 0.02 78 1008.7
20260505075522 38 244 22.0 33.0 0.01 0.01 0.01 78 1008.6
20260505074522 38 249 23.0 34.0 0.01 0.01 0.01 78 1008.5
20260505073522 37 250 21.0 32.0 0.01 0.01 0.01 78 1008.8
20260505071522 37 260 23.0 36.0 0.00 0.00 0.00 78 1008.8
20260505070522 36 253 25.0 36.0 0.00 0.00 0.00 78 1008.6
20260505065524 37 250 24.0 31.0 0.00 0.00 0.00 78 1008.6
20260505065025 37 252 26.0 35.0 0.00 0.00 0.00 78 1008.5
20260505064522 37 252 26.0 35.0 0.00 0.00 0.00 78 1008.5
20260505063522 36 254 23.0 33.0 0.00 0.00 0.00 77 1008.6
20260505062522 36 257 24.0 35.0 0.00 0.00 0.00 77 1008.8
20260505061522 36 254 23.0 36.0 0.00 0.00 0.00 77 1008.8
20260505060522 36 258 25.0 35.0 0.00 0.00 0.00 77 1008.9
20260505055522 36 262 24.0 40.0 0.00 0.00 0.00 77 1009.0
20260505054525 36 255 26.0 34.0 0.00 0.00 0.00 77 1008.8
20260505053522 36 259 25.0 40.0 0.00 0.00 0.00 77 1008.9
20260505052522 37 245 25.0 37.0 0.00 0.00 0.00 77 1008.9
20260505051522 37 247 27.0 36.0 0.00 0.00 0.00 77 1008.8
20260505050522 37 255 26.0 36.0 0.00 0.00 0.00 76 1008.7
20260505041522 37 250 25.0 37.0 0.00 0.00 0.00 75 1008.7
20260505040522 37 252 24.0 35.0 0.00 0.00 0.00 74 1008.9
20260505035523 37 257 26.0 36.0 0.00 0.00 0.00 72 1008.8
20260505034522 37 253 26.0 36.0 0.00 0.00 0.00 70 1008.9
20260505033523 37 252 24.0 36.0 0.00 0.00 0.00 68 1008.9
20260505032522 38 252 23.0 33.0 0.00 0.00 0.00 67 1008.7
20260505031524 38 240 21.0 27.0 0.00 0.00 0.00 66 1008.5
20260505030524 39 247 24.0 32.0 0.00 0.00 0.00 66 1008.8
20260505025522 39 255 21.0 32.0 0.00 0.00 0.00 64 1008.9
20260505024522 39 251 23.0 35.0 0.00 0.00 0.00 64 1008.8
20260505023522 39 248 26.0 38.0 0.00 0.00 0.00 63 1008.8
20260505022023 40 249 26.0 36.0 0.00 0.00 0.00 62 1008.6
20260505021022 40 246 26.0 35.0 0.00 0.00 0.00 57 1008.5
20260505020022 41 245 24.0 35.0 0.00 0.00 0.00 53 1008.7
20260505015022 41 244 23.0 33.0 0.00 0.00 0.00 51 1008.8
20260505014022 41 247 24.0 37.0 0.00 0.00 0.00 50 1008.8
20260505013057 42 254 27.0 36.0 0.00 0.00 0.00 50 1008.8
20260505013022 42 254 27.0 36.0 0.00 0.00 0.00 50 1008.8
20260505012022 42 249 23.0 31.0 0.00 0.00 0.00 49 1008.9
20260505011022 42 247 23.0 31.0 0.00 0.00 0.00 48 1008.8
20260505010024 42 247 23.0 32.0 0.00 0.00 0.00 47 1009.0
20260505005022 42 249 23.0 33.0 0.00 0.00 0.00 45 1009.0
20260505004022 42 259 23.0 36.0 0.00 0.00 0.00 44 1009.1
20260505002228 42 252 26.0 32.0 0.00 0.00 0.00 44 1009.0
20260505001229 43 243 23.0 32.0 0.00 0.00 0.00 43 1008.9
20260505000229 43 240 22.0 34.0 0.00 0.00 0.00 42 1009.4
20260504235230 44 251 20.0 32.0 0.00 0.00 0.00 41 1009.3
20260504234230 44 254 24.0 38.0 0.00 0.00 0.00 42 1009.4
20260504233228 44 251 25.0 35.0 0.00 0.00 0.00 40 1009.4
20260504232228 44 241 25.0 34.0 0.00 0.00 0.00 37 1009.1
20260504231228 44 250 23.0 34.0 0.00 0.00 0.00 36 1009.5
20260504230229 44 255 23.0 37.0 0.00 0.00 0.00 35 1009.7
20260504225228 45 249 24.0 44.0 0.00 0.00 0.00 36 1009.7
20260504224229 45 258 26.0 38.0 0.00 0.00 0.00 37 1009.7
20260504223551 45 256 25.0 37.0 0.00 0.00 0.00 37 1009.9
20260504223228 45 256 25.0 37.0 0.00 0.00 0.00 37 1009.9
20260504222228 45 260 27.0 40.0 0.00 0.00 0.00 36 1009.9
20260504221708 45 259 26.0 40.0 0.00 0.00 0.00 40 1010.1
20260504221228 45 259 26.0 40.0 0.00 0.00 0.00 40 1010.1
20260504220611 45 254 24.0 44.0 0.00 0.00 0.00 39 1010.2
20260504220230 45 254 24.0 44.0 0.00 0.00 0.00 39 1010.2
20260504215748 45 258 21.0 37.0 0.00 0.00 0.00 38 1010.4